New Orleans, LA

5:41 PM CST on February 09, 2016 (GMT -0600)
Lakefront

Weather History for KNEW - August, 2014

Change the Weather History Date:

Saturday, August 9, 2014

  Actual Average Record
Temperature  
Mean Temperature 85 °F 83 °F  
Max Temperature 94 °F 92 °F 97 °F (2007)
Min Temperature 76 °F 75 °F 64 °F (1989)
Degree Days  
Heating Degree Days 0 0  
Month to date heating degree days 0 0  
Since 1 June heating degree days 0 0  
Since 1 July heating degree days 0 0  
Cooling Degree Days 20 18  
Month to date cooling degree days 181 162  
Year to date cooling degree days 1758 1842  
Since 1 June cooling degree days 1235 1223  
Growing Degree Days 36 (Base 50)    
Moisture  
Dew Point 75 °F    
Average Humidity 72    
Maximum Humidity 91    
Minimum Humidity 52    
Precipitation  
Precipitation 0.59 in 0.19 in 1.85 in (1995)
Month to date precipitation 1.59 1.77  
Year to date precipitation 39.05 40.00  
Snow  
Snow 0.00 in - - ()
Month to date snowfall 0.0  
Since 1 June snowfall 0.0  
Since 1 July snowfall 0.0  
Snow Depth 0.00 in    
Sea Level Pressure  
Sea Level Pressure 30.00 in    
Wind  
Wind Speed 6 mph (WSW)    
Max Wind Speed 18 mph    
Max Gust Speed 23 mph    
Visibility 10 miles    
Events Rain    
T = Trace of Precipitation, MM = Missing Value Source: NWS Daily Summary

Daily Weather History Graph

Daily Weather History Graph

Search for Another Location

Airport or City:

Trip Planner

Search our weather history database for the weather conditions in past years. The results will help you decide how hot, cold, wet, or windy it might be!

Date:

Astronomy

Aug. 09, 2014 Rise Set
Actual Time 6:23 AM CDT 7:46 PM CDT
Civil Twilight 5:58 AM CDT 8:12 PM CDT
Nautical Twilight 5:27 AM CDT 8:42 PM CDT
Astronomical Twilight 4:56 AM CDT 9:14 PM CDT
Moon 6:50 PM CDT 5:04 AM CDT
Length of Visible Light 14h 13m
Length of Day
13h 22m
Waxing Gibbous, 98% of the Moon is Illuminated
Aug 9
Waxing Gibbous
Aug 10
Full
Aug 17
Last Quarter
Aug 25
New
Sep 2
First Quarter

Hourly Weather History & Observations

Time (CDT) Temp. Heat Index Dew Point Humidity Pressure Visibility Wind Dir Wind Speed Gust Speed Precip Events Conditions
12:53 AM 82.9 °F 91.8 °F 77.0 °F 82% 29.99 in 10.0 mi SW 9.2 mph - 0.00 in Rain Light Rain
1:53 AM 84.0 °F 92.6 °F 75.9 °F 76% 29.98 in 10.0 mi WSW 11.5 mph - 0.00 in   Clear
2:53 AM 82.9 °F 90.8 °F 75.9 °F 79% 29.97 in 10.0 mi SW 9.2 mph - N/A   Clear
3:53 AM 82.9 °F 90.8 °F 75.9 °F 79% 29.98 in 10.0 mi WSW 5.8 mph - N/A   Mostly Cloudy
4:53 AM 82.0 °F 89.4 °F 75.9 °F 82% 29.98 in 10.0 mi SW 6.9 mph - N/A   Partly Cloudy
5:53 AM 82.0 °F 90.2 °F 77.0 °F 85% 29.99 in 10.0 mi WSW 6.9 mph - N/A   Scattered Clouds
6:53 AM 82.0 °F 89.4 °F 75.9 °F 82% 30.01 in 10.0 mi SW 6.9 mph - N/A   Partly Cloudy
7:53 AM 82.0 °F 89.4 °F 75.9 °F 82% 30.02 in 10.0 mi SW 6.9 mph - N/A   Clear
8:53 AM 84.0 °F 92.6 °F 75.9 °F 76% 30.02 in 10.0 mi WSW 6.9 mph - N/A   Clear
9:53 AM 86.0 °F 96.0 °F 75.9 °F 72% 30.04 in 10.0 mi West 8.1 mph - N/A   Clear
10:53 AM 87.1 °F 97.3 °F 75.9 °F 69% 30.05 in 10.0 mi WNW 6.9 mph - N/A   Clear
12:53 PM 90.0 °F 101.3 °F 75.9 °F 63% 30.03 in 10.0 mi NNW 9.2 mph - N/A   Clear
1:53 PM 91.9 °F 103.2 °F 75.0 °F 58% 30.00 in 10.0 mi NNW 5.8 mph - N/A   Clear
2:53 PM 84.0 °F 88.4 °F 70.0 °F 63% 29.99 in 10.0 mi South 19.6 mph 27.6 mph N/A   Mostly Cloudy
3:53 PM 88.0 °F 94.7 °F 72.0 °F 59% 29.96 in 10.0 mi SW 6.9 mph - N/A   Clear
4:53 PM 91.0 °F 98.2 °F 72.0 °F 53% 29.95 in 10.0 mi SW 4.6 mph - N/A   Clear
5:53 PM 86.0 °F 96.0 °F 75.9 °F 72% 29.95 in 10.0 mi WSW 24.2 mph - N/A   Mostly Cloudy
6:53 PM 84.0 °F 92.6 °F 75.9 °F 76% 30.00 in 10.0 mi NW 23.0 mph - N/A   Mostly Cloudy
7:53 PM 80.1 °F 84.5 °F 73.9 °F 81% 30.03 in 10.0 mi North 18.4 mph - N/A   Mostly Cloudy
8:53 PM 80.1 °F 84.5 °F 73.9 °F 81% 30.03 in 10.0 mi ENE 13.8 mph - N/A   Mostly Cloudy
9:53 PM 80.6 °F 85.4 °F 73.4 °F 79% 30.05 in 10.0 mi ENE 11.5 mph - N/A   Partly Cloudy
10:53 PM 80.6 °F 85.4 °F 73.4 °F 79% 30.04 in 10.0 mi ESE 8.1 mph - N/A   Clear
11:53 PM 80.1 °F 84.5 °F 73.9 °F 81% 30.00 in 10.0 mi ESE 6.9 mph - N/A   Clear